Regional Weather Roundup
Issued by NWS

Home | Current Version | Previous Version | Graphics & Text | Print | Product List | Glossary On
Versions: 1 2 3 4 5 6 7 8 9 10 11 12 13 14 15 16 17 18 19 20 21 22 23 24 25 26 27 28 29 30 31 32 33 34 35 36 37 38 39 40 41 42 43 44 45 46 47 48 49 50
000
ASUS44 KMEG 200310
RWRTN
TENNESSEE HOURLY STATE WEATHER ROUNDUP
NATIONAL WEATHER SERVICE MEMPHIS TN
1000 PM CDT SUN OCT 19 2014

TNZ002-004-019-021-049-052-054-088>092-200400-
WEST TENNESSEE

CITY           SKY/WX    TMP DP  RH WIND       PRES   REMARKS
MEMPHIS INTL   PTCLDY    54  48  80 CALM      30.10F
NWS MEMPHIS      N/A     50 N/A N/A MISG        N/A
JACKSON        MOCLDY    48  47  96 CALM      30.11S
DYERSBURG      CLOUDY    50  39  66 CALM      30.12S
UNION CITY     CLEAR     48  46  93 CALM      30.09F
PARIS          CLEAR     46  43  87 CALM      30.10F
HUNTINGDON     MOCLDY    46  44  93 CALM      30.11S
LEXINGTON      CLEAR     48  46  93 CALM      30.10S
SAVANNAH       CLEAR     46  46 100 CALM      30.11F
$$

TNZ008-025-027-028-033-062-065-066-200400-
NORTH MIDDLE TENNESSEE

CITY           SKY/WX    TMP DP  RH WIND       PRES   REMARKS
NASHVILLE      MOCLDY    50  47  89 S3        30.11S
CLARKSVILLE    CLOUDY    49  46  90 CALM      30.10S
SMYRNA         PTCLDY    46  45  97 CALM      30.12F
COOKEVILLE     CLEAR     45  45 100 CALM      30.11S
CROSSVILLE     MOCLDY    48  43  82 CALM      30.13S
$$

TNZ061-075-076-078-094-096-097-200400-
SOUTH MIDDLE TENNESSEE

CITY           SKY/WX    TMP DP  RH WIND       PRES   REMARKS
FAYETTEVILLE   CLEAR     52  45  76 MISG      30.12R
TULLAHOMA      CLEAR     46  43  87 CALM      30.13R
WINCHESTER     CLEAR     48  46  93 CALM      30.12S
MCMINNVILLE    CLEAR     46  46 100 CALM      30.12S
COLUMBIA       CLEAR    N/A N/A N/A CALM      30.09F
SHELBYVILLE    CLEAR     46  46 100 E3        30.12F
$$

TNZ017-018-042-046-047-200400-
NORTHEAST TENNESSEE

CITY           SKY/WX    TMP DP  RH WIND       PRES   REMARKS
TRI CITIES     PTCLDY    42  39  89 CALM      30.13S
ELIZABETHTON   CLEAR     43  37  81 CALM      30.13S
$$

TNZ012-013-036-069-073-074-200400-
CENTRAL EAST TENNESSEE

CITY           SKY/WX    TMP DP  RH WIND       PRES   REMARKS
KNOXVILLE      MOCLDY    50  45  83 CALM      30.10S
OAK RIDGE      MOCLDY    49  46  90 CALM      30.13S
GATLINBURG     CLEAR     46  45  93 CALM      30.11S
MORRISTOWN     CLEAR     46  43  87 CALM      30.12S
$$

TNZ083-085-099-200400-
SOUTHEAST TENNESSEE

CITY           SKY/WX    TMP DP  RH WIND       PRES   REMARKS
CHATTANOOGA    PTCLDY    52  48  86 CALM      30.12R
$$

SKY/WX REPORTED AS FAIR MEANS FEW OR NO CLOUDS BELOW
12 THOUSAND FEET.




USA.gov is the U.S. government's official web portal to all federal, state and local government web resources and services.